Regional Weather Roundup
Issued by NWS

Home | Current Version | Previous Version | Text Only | Print | Product List | Glossary On
Versions: 1 2 3 4 5 6 7 8 9 10 11 12 13 14 15 16 17 18 19 20 21 22 23 24 25 26 27 28 29 30 31 32 33 34 35 36 37 38 39 40 41 42 43 44 45 46 47 48 49 50
000
ASUS43 KTOP 261308
RWRKS

WEATHER ROUNDUP FOR KANSAS
NATIONAL WEATHER SERVICE GOODLAND KS
800 AM CDT SUN APR 26 2015

NOTE:  "FAIR" INDICATES FEW OR NO CLOUDS BELOW 12,000 FEET WITH NO
SIGNIFICANT WEATHER AND/OR OBSTRUCTIONS TO VISIBILITY.

KSZ001>006-013>018-027>032-041>047-261400-
NORTHWEST KANSAS

CITY           SKY/WX    TMP DP  RH WIND       PRES   REMARKS
GOODLAND       FOG       43  43 100 E15       29.87R VSB 3/4
HAYS           CLOUDY    46  39  76 E17G25    29.88S
HILL CITY      CLOUDY    46  44  93 E16       29.90S FOG
RUSSELL        CLOUDY    47  46  97 NE18      29.89R
$$

KSZ061>065-074>080-084>089-261400-
SOUTHWEST KANSAS

CITY           SKY/WX    TMP DP  RH WIND       PRES   REMARKS
DODGE CITY     FOG       46  44  93 E17       29.84R VSB 1/2
ELKHART          N/A     53  43  69 E16         N/A
GARDEN CITY    CLOUDY    45  45 100 E18       29.83R FOG
GREAT BEND     CLOUDY    46  43  87 E16       29.87R
LIBERAL        CLOUDY    52  46  82 E16       29.79R
$$

KSZ066>073-081>083-090>101-261400-
SOUTHEAST KANSAS

CITY           SKY/WX    TMP DP  RH WIND       PRES   REMARKS
CHANUTE        CLOUDY    51  49  92 NE10      29.86R FOG
COFFEYVILLE    CLOUDY    53  50  89 NE14      29.84R
HUTCHINSON     CLOUDY    50  46  86 E14       29.86R FOG
MEDICINE LODGE   N/A     49  47  93 E16       29.83R
NEWTON         CLOUDY    48  43  81 E10       29.88S
PARSONS        CLOUDY    53  49  86 E9        29.86R
WICHITA INTL   CLOUDY    51  46  83 NE16      29.85R
WICHITA JABRA  CLOUDY    49  47  93 E15G23    29.85R
WICHITA MCCONL CLOUDY    50  47  89 E12       29.84R
WINFIELD       CLOUDY    51  48  89 E15       29.84R
$$

KSZ007>012-019>026-033>040-048>060-102>105-261400-
NORTHEAST KANSAS

CITY           SKY/WX    TMP DP  RH WIND       PRES   REMARKS
CONCORDIA      FOG       46  44  93 E16       29.93R VSB 1
EMPORIA        CLOUDY    49  47  93 E13       29.89R FOG
LAWRENCE       CLOUDY    49  44  83 NE8       29.93R
MANHATTAN      CLOUDY    48  47  96 NE12      29.92R FOG
MARYSVILLE     CLOUDY    45  41  87 E12G18    29.95R
OLATHE IND     CLOUDY    48  44  86 NE14      29.93R
OLATHE EXE     CLOUDY    48  45  89 NE13      29.92R FOG
SALINA         CLOUDY    50  47  89 NE9       29.90R FOG
TOPEKA BILLARD CLOUDY    50  45  83 NE13      29.94R
TOPEKA FORBES  CLOUDY    50  45  83 NE10      29.92R HAZE
$$


USA.gov is the U.S. government's official web portal to all federal, state and local government web resources and services.